CW9804 Weather Reports


Display with metric or nautical units.
time (UTC)temp
F
wind
direction
speed
MPH
gust
MPH
rain 1hr
in
rain 24hr
in
rain mn
in
humidity
%
barometer
mb
20260506143410 62 291 4.0 6.0 0.00 0.00 0.00 73 1011.0
20260506141910 63 313 3.0 10.0 0.00 0.00 0.00 71 1011.1
20260506140410 63 202 3.0 9.0 0.00 0.00 0.00 70 1011.2
20260506134910 63 206 0.0 5.0 0.00 0.00 0.00 70 1011.2
20260506133410 64 225 3.0 12.0 0.00 0.00 0.00 68 1011.3
20260506131910 64 217 1.0 10.0 0.00 0.00 0.00 70 1011.3
20260506124910 67 309 4.0 8.0 0.00 0.00 0.00 68 1011.5
20260506123410 66 224 4.0 9.0 0.00 0.00 0.00 69 1011.6
20260506114910 66 277 4.0 9.0 0.00 0.00 0.00 66 1011.8
20260506113410 66 219 6.0 13.0 0.00 0.00 0.00 65 1012.1
20260506111910 65 305 4.0 11.0 0.00 0.00 0.00 65 1012.0
20260506110410 66 158 5.0 10.0 0.00 0.00 0.00 66 1012.2
20260506104910 67 111 2.0 9.0 0.00 0.00 0.00 66 1012.3
20260506100410 64 286 4.0 9.0 0.00 0.00 0.00 72 1012.7
20260506091911 62 273 0.0 4.0 0.00 0.00 0.00 80 1012.7
20260506090411 62 315 3.0 7.0 0.00 0.00 0.00 80 1012.7
20260506084911 62 300 3.0 5.0 0.00 0.00 0.00 79 1012.5
20260506083411 62 18 2.0 4.0 0.00 0.00 0.00 79 1012.4
20260506081911 61 18 0.0 3.0 0.00 0.00 0.00 81 1012.2
20260506080411 60 313 2.0 7.0 0.00 0.00 0.00 79 1012.3
20260506073410 60 292 3.0 4.0 0.00 0.00 0.00 81 1012.5
20260506071910 60 241 1.0 3.0 0.00 0.00 0.00 80 1012.5
20260506070410 60 213 1.0 5.0 0.00 0.00 0.00 80 1012.6
20260506061910 62 230 5.0 12.0 0.00 0.00 0.00 74 1012.3
20260506060409 62 269 7.0 13.0 0.00 0.00 0.00 73 1012.3
20260506050415 60 225 5.0 8.0 0.00 0.00 0.00 76 1012.2
20260506044915 59 217 6.0 10.0 0.00 0.00 0.00 76 1012.0
20260506041915 59 219 4.0 10.0 0.00 0.00 0.00 77 1012.0
20260506040415 59 255 3.0 8.0 0.00 0.00 0.00 78 1012.0
20260506034915 59 263 7.0 15.0 0.00 0.00 0.00 78 1012.0
20260506031914 59 236 5.0 14.0 0.00 0.00 0.00 78 1012.0
20260506030414 59 254 6.0 10.0 0.00 0.00 0.00 78 1012.2
20260506024914 59 227 7.0 10.0 0.00 0.00 0.00 79 1012.2
20260506023414 59 270 4.0 9.0 0.00 0.00 0.00 78 1012.4
20260506021914 58 254 5.0 10.0 0.00 0.00 0.00 79 1012.4
20260506020414 58 246 6.0 9.0 0.00 0.00 0.00 80 1012.4
20260506014913 58 246 4.0 6.0 0.00 0.00 0.00 79 1012.3
20260506011913 58 225 5.0 9.0 0.00 0.00 0.00 78 1012.2
20260506010413 58 275 5.0 17.0 0.00 0.00 0.00 79 1012.1
20260506003413 58 227 9.0 12.0 0.00 0.00 0.00 78 1012.2
20260506001913 58 228 8.0 15.0 0.00 0.00 0.00 78 1012.3
20260505234912 58 269 3.0 8.0 0.00 0.00 0.00 80 1012.6
20260505233412 58 287 2.0 6.0 0.00 0.00 0.00 80 1012.6
20260505231912 58 289 4.0 7.0 0.00 0.00 0.00 79 1012.7
20260505230412 58 254 3.0 7.0 0.00 0.00 0.00 79 1012.9
20260505224912 58 259 6.0 13.0 0.00 0.00 0.00 78 1012.7
20260505223412 59 245 9.0 17.0 0.00 0.00 0.00 77 1012.5
20260505221911 58 268 3.0 6.0 0.00 0.00 0.00 78 1012.5
20260505220411 58 263 2.0 8.0 0.00 0.00 0.00 78 1012.5
20260505214911 59 304 1.0 12.0 0.00 0.00 0.00 77 1012.6
20260505213411 58 286 6.0 10.0 0.00 0.00 0.00 79 1012.8
20260505211911 58 63 1.0 6.0 0.00 0.00 0.00 81 1012.9
20260505210411 58 46 3.0 5.0 0.00 0.00 0.00 80 1013.0
20260505204911 58 13 2.0 3.0 0.00 0.00 0.00 80 1013.1
20260505203411 58 256 6.0 14.0 0.00 0.00 0.00 79 1013.0
20260505201911 58 225 7.0 13.0 0.00 0.00 0.00 79 1013.0
20260505200411 58 220 5.0 12.0 0.00 0.00 0.00 79 1012.9
20260505193414 58 292 9.0 15.0 0.00 0.00 0.00 78 1012.9
20260505191911 58 254 2.0 7.0 0.00 0.00 0.00 77 1012.9
20260505190411 58 234 2.0 4.0 0.00 0.00 0.00 77 1012.7
20260505184911 58 284 5.0 9.0 0.00 0.00 0.00 77 1012.7
20260505183411 58 276 3.0 6.0 0.00 0.00 0.00 76 1012.7
20260505181911 58 297 2.0 7.0 0.00 0.00 0.00 76 1012.6
20260505180411 58 264 2.0 7.0 0.00 0.00 0.00 76 1012.7
20260505174911 59 284 3.0 9.0 0.00 0.00 0.00 75 1012.6
20260505173411 60 263 3.0 6.0 0.00 0.00 0.00 74 1012.7
20260505171911 60 301 3.0 8.0 0.00 0.00 0.00 73 1012.7
20260505170411 60 279 5.0 9.0 0.00 0.00 0.00 72 1012.8
20260505164913 60 302 7.0 11.0 0.00 0.00 0.00 71 1012.8
20260505163413 60 229 4.0 9.0 0.00 0.00 0.00 71 1012.6
20260505161912 61 263 7.0 10.0 0.00 0.00 0.00 69 1012.9
20260505160412 62 294 6.0 11.0 0.00 0.00 0.00 68 1013.0